User: anonymous   Login
Location: Unspecified
(0.0000°N, 0.0000°E)
Time: 09:27:45
(UTC+01:00)
Language:

Gbstr 26 Del rocket - Orbit

View from above orbital plane
View from above orbital plane
View from above satellite
View from above satellite

Ground track
Ground track

The orbit data is extracted from the following two-line orbital elements,

1 25876U 99041E   16338.58391035 -.00000048  00000-0  32531-4 0  9997
2 25876  51.7661   8.5013 0532461 177.9739 182.3523 14.03961445887135
Epoch (UTC): 03 December 2016 14:00:49
Eccentricity: 0.0532461
inclination: 51.7661°
perigee height: 493 km
apogee height: 1266 km
right ascension of ascending node: 8.5013°
argument of perigee: 177.9739°
revolutions per day: 14.03961445
mean anomaly at epoch: 182.3523°
orbit number at epoch: 88713

The dashed part of the orbit path shows where the satellite is in the earth's shadow,  

DLR